AFR66 LFPO-LFMP

Flight info

Callsign AFR66
Flight time 1h 4m
Altitude 39000
Route ERIXU DCT ETAMO DCT ADEKA DCT MOKDI DCT MEN DCT BADAM DCT NEKTA DCT SIJAN
Aircraft A319/M-SDE3FGHIRWY/LB1

Departure

Time 2026-04-18 06:21
Airport Paris-Orly Airport (LFPO)

Arrival

Time 2026-04-18 07:26
Airport Perpignan-Rivesaltes (Llabanère) Airport (LFMP)
Time Latitude Longitude Altitude Speed Heading
2026-04-18 06:10 48.72567 2.36078 298 ft 0 kts 357°
2026-04-18 06:15 48.72555 2.36079 302 ft 3 kts 357°
2026-04-18 06:15 48.72537 2.36080 298 ft 3 kts 357°
2026-04-18 06:16 48.72518 2.36081 301 ft 3 kts 350°
2026-04-18 06:16 48.72500 2.36091 303 ft 3 kts 333°
2026-04-18 06:16 48.72485 2.36107 303 ft 3 kts 297°
2026-04-18 06:16 48.72480 2.36123 303 ft 0 kts 270°
2026-04-18 06:18 48.72480 2.36121 303 ft 2 kts 270°
2026-04-18 06:18 48.72478 2.36070 300 ft 7 kts 260°
2026-04-18 06:19 48.72470 2.35967 296 ft 11 kts 270°
2026-04-18 06:19 48.72477 2.35836 300 ft 14 kts 275°
2026-04-18 06:19 48.72464 2.35688 296 ft 15 kts 249°
2026-04-18 06:19 48.72377 2.35632 297 ft 16 kts 169°
2026-04-18 06:20 48.72263 2.35603 297 ft 18 kts 195°
2026-04-18 06:20 48.72138 2.35634 299 ft 19 kts 162°
2026-04-18 06:20 48.72030 2.35751 296 ft 21 kts 121°
2026-04-18 06:20 48.71965 2.35951 298 ft 22 kts 104°
2026-04-18 06:21 48.72006 2.36221 299 ft 43 kts 75°
2026-04-18 06:21 48.72165 2.37082 297 ft 123 kts 73°
2026-04-18 06:21 48.72446 2.38606 489 ft 162 kts 75°
2026-04-18 06:21 48.72748 2.40229 1297 ft 159 kts 75°
2026-04-18 06:22 48.73052 2.41850 2086 ft 159 kts 77°
2026-04-18 06:22 48.73368 2.43594 2539 ft 185 kts 77°
2026-04-18 06:22 48.73729 2.45587 2978 ft 208 kts 76°
2026-04-18 06:22 48.74095 2.47818 3452 ft 228 kts 81°
2026-04-18 06:23 48.74268 2.50327 3991 ft 252 kts 86°
2026-04-18 06:23 48.74350 2.53070 4778 ft 266 kts 88°
2026-04-18 06:23 48.74356 2.55921 5753 ft 274 kts 96°
2026-04-18 06:23 48.73628 2.58539 6698 ft 280 kts 131°
2026-04-18 06:24 48.72029 2.60256 7680 ft 282 kts 159°
2026-04-18 06:24 48.70170 2.61087 8692 ft 282 kts 175°
2026-04-18 06:24 48.68233 2.60949 9710 ft 280 kts 198°
2026-04-18 06:24 48.66392 2.59955 10612 ft 286 kts 205°
2026-04-18 06:25 48.64476 2.58818 11019 ft 309 kts 205°
2026-04-18 06:25 48.62472 2.57619 11714 ft 318 kts 205°
2026-04-18 06:25 48.60502 2.56448 12537 ft 323 kts 204°
2026-04-18 06:25 48.58395 2.55202 13421 ft 327 kts 204°
2026-04-18 06:26 48.56266 2.53947 14272 ft 330 kts 204°
2026-04-18 06:26 48.54110 2.52679 15035 ft 334 kts 204°
2026-04-18 06:26 48.52645 2.51818 15556 ft 336 kts 205°
2026-04-18 06:26 48.50451 2.50529 16327 ft 340 kts 205°
2026-04-18 06:27 48.48265 2.49246 17087 ft 343 kts 205°
2026-04-18 06:27 48.46029 2.47935 17836 ft 346 kts 205°
2026-04-18 06:27 48.43776 2.46613 18591 ft 350 kts 205°
2026-04-18 06:27 48.41490 2.45272 19237 ft 353 kts 205°
2026-04-18 06:28 48.39191 2.43925 19893 ft 356 kts 205°
2026-04-18 06:28 48.36875 2.42567 20559 ft 359 kts 205°
2026-04-18 06:28 48.34527 2.41194 21225 ft 363 kts 205°
2026-04-18 06:28 48.32165 2.39815 21880 ft 366 kts 206°
2026-04-18 06:29 48.29781 2.38423 22528 ft 369 kts 206°
2026-04-18 06:29 48.27378 2.37017 23168 ft 373 kts 206°
2026-04-18 06:29 48.24947 2.35599 23791 ft 376 kts 206°
2026-04-18 06:29 48.22494 2.34172 24297 ft 379 kts 206°
2026-04-18 06:30 48.20027 2.32741 24815 ft 382 kts 206°
2026-04-18 06:30 48.17534 2.31298 25332 ft 384 kts 206°
2026-04-18 06:30 48.15033 2.29851 25834 ft 386 kts 206°
2026-04-18 06:30 48.12518 2.28392 26330 ft 389 kts 206°
2026-04-18 06:31 48.09994 2.27022 26809 ft 394 kts 201°
2026-04-18 06:31 48.07250 2.26416 27273 ft 407 kts 185°
2026-04-18 06:31 48.04396 2.26906 27740 ft 417 kts 176°
2026-04-18 06:31 48.01525 2.27658 28220 ft 420 kts 175°
2026-04-18 06:32 47.98644 2.28454 28696 ft 423 kts 175°
2026-04-18 06:32 47.95746 2.29276 29156 ft 425 kts 175°
2026-04-18 06:32 47.92828 2.30108 29606 ft 428 kts 175°
2026-04-18 06:32 47.89889 2.30940 30052 ft 431 kts 175°
2026-04-18 06:33 47.86936 2.31762 30452 ft 433 kts 175°
2026-04-18 06:33 47.84012 2.32564 30808 ft 435 kts 175°
2026-04-18 06:33 47.81020 2.33377 31163 ft 437 kts 175°
2026-04-18 06:33 47.78020 2.34195 31518 ft 440 kts 175°
2026-04-18 06:34 47.75002 2.35022 31861 ft 442 kts 175°
2026-04-18 06:34 47.71976 2.35852 32237 ft 443 kts 175°
2026-04-18 06:34 47.68942 2.36688 32720 ft 442 kts 175°
2026-04-18 06:34 47.65927 2.37520 33216 ft 440 kts 175°
2026-04-18 06:35 47.62921 2.38347 33701 ft 439 kts 175°
2026-04-18 06:35 47.59921 2.39165 34187 ft 438 kts 175°
2026-04-18 06:35 47.56928 2.39978 34603 ft 437 kts 175°
2026-04-18 06:35 47.53939 2.40788 35026 ft 436 kts 175°
2026-04-18 06:36 47.50968 2.41591 35432 ft 435 kts 175°
2026-04-18 06:36 47.47983 2.42399 35832 ft 434 kts 175°
2026-04-18 06:36 47.45019 2.43201 36216 ft 433 kts 175°
2026-04-18 06:36 47.42051 2.44002 36593 ft 432 kts 175°
2026-04-18 06:37 47.39138 2.44789 36961 ft 432 kts 175°
2026-04-18 06:37 47.36193 2.45585 37332 ft 431 kts 175°
2026-04-18 06:37 47.33246 2.46380 37690 ft 430 kts 175°
2026-04-18 06:37 47.30305 2.47173 38049 ft 429 kts 174°
2026-04-18 06:38 47.27367 2.47963 38380 ft 428 kts 175°
2026-04-18 06:38 47.24438 2.48752 38711 ft 428 kts 174°
2026-04-18 06:38 47.21510 2.49539 39000 ft 427 kts 174°
2026-04-18 06:38 47.18584 2.50326 39171 ft 428 kts 174°
2026-04-18 06:39 47.15651 2.51113 39215 ft 429 kts 174°
2026-04-18 06:39 47.09811 2.52675 39221 ft 429 kts 174°
2026-04-18 06:40 47.03890 2.54259 39219 ft 430 kts 174°
2026-04-18 06:40 46.98036 2.55815 39218 ft 430 kts 174°
2026-04-18 06:41 46.92143 2.57379 39218 ft 431 kts 174°
2026-04-18 06:41 46.86237 2.58943 39209 ft 431 kts 174°
2026-04-18 06:42 46.80325 2.60504 39203 ft 431 kts 174°
2026-04-18 06:42 46.74419 2.62069 39201 ft 432 kts 174°
2026-04-18 06:43 46.68501 2.63624 39198 ft 432 kts 174°
2026-04-18 06:43 46.62617 2.65177 39193 ft 433 kts 174°
2026-04-18 06:44 46.56685 2.66730 39194 ft 433 kts 174°
2026-04-18 06:44 46.50735 2.68283 39192 ft 434 kts 174°
2026-04-18 06:45 46.44792 2.69829 39193 ft 434 kts 174°
2026-04-18 06:45 46.38837 2.71386 39195 ft 435 kts 174°
2026-04-18 06:46 46.32969 2.72919 39199 ft 436 kts 174°
2026-04-18 06:46 46.27002 2.74467 39201 ft 436 kts 174°
2026-04-18 06:47 46.21022 2.76008 39200 ft 436 kts 174°
2026-04-18 06:47 46.15043 2.77559 39198 ft 437 kts 174°
2026-04-18 06:48 46.09041 2.79105 39198 ft 438 kts 174°
2026-04-18 06:48 46.03041 2.80644 39200 ft 438 kts 174°
2026-04-18 06:49 45.97026 2.82182 39207 ft 439 kts 174°
2026-04-18 06:49 45.91046 2.83711 39216 ft 440 kts 174°
2026-04-18 06:50 45.85015 2.85252 39221 ft 440 kts 174°
2026-04-18 06:50 45.78984 2.86788 39229 ft 440 kts 174°
2026-04-18 06:51 45.72940 2.88329 39224 ft 441 kts 174°
2026-04-18 06:51 45.66898 2.89873 39230 ft 441 kts 174°
2026-04-18 06:52 45.60848 2.91404 39224 ft 441 kts 174°
2026-04-18 06:52 45.54791 2.92925 39220 ft 442 kts 174°
2026-04-18 06:53 45.48731 2.94451 39215 ft 442 kts 174°
2026-04-18 06:53 45.42722 2.95965 39215 ft 442 kts 174°
2026-04-18 06:54 45.36700 2.97483 39218 ft 442 kts 174°
2026-04-18 06:54 45.30645 2.98996 39225 ft 442 kts 174°
2026-04-18 06:55 45.24575 3.00504 39229 ft 442 kts 174°
2026-04-18 06:55 45.18510 3.02014 39233 ft 443 kts 174°
2026-04-18 06:56 45.12438 3.03527 39232 ft 443 kts 174°
2026-04-18 06:56 45.06380 3.05035 39237 ft 443 kts 174°
2026-04-18 06:57 45.00304 3.06545 39236 ft 442 kts 174°
2026-04-18 06:57 44.91206 3.08784 39241 ft 442 kts 174°
2026-04-18 06:58 44.85128 3.10289 39238 ft 442 kts 174°
2026-04-18 06:58 44.79106 3.11775 39239 ft 442 kts 174°
2026-04-18 06:59 44.73041 3.13266 39237 ft 442 kts 174°
2026-04-18 06:59 44.66970 3.14750 39231 ft 442 kts 174°
2026-04-18 07:00 44.60904 3.16133 39232 ft 440 kts 179°
2026-04-18 07:00 44.54813 3.16328 39228 ft 438 kts 183°
2026-04-18 07:01 44.48719 3.16427 39231 ft 438 kts 183°
2026-04-18 07:01 44.42625 3.16524 39230 ft 438 kts 183°
2026-04-18 07:02 44.36532 3.16631 39224 ft 438 kts 183°
2026-04-18 07:02 44.30438 3.16724 39229 ft 438 kts 183°
2026-04-18 07:03 44.24402 3.16813 39182 ft 438 kts 183°
2026-04-18 07:03 44.21336 3.16857 38255 ft 446 kts 183°
2026-04-18 07:03 44.18209 3.16902 37141 ft 452 kts 182°
2026-04-18 07:04 44.15045 3.16949 36048 ft 456 kts 182°
2026-04-18 07:04 44.11850 3.16998 34999 ft 460 kts 182°
2026-04-18 07:04 44.08675 3.16714 34147 ft 455 kts 192°
2026-04-18 07:04 44.05613 3.15738 33186 ft 449 kts 200°
2026-04-18 07:05 44.02651 3.14439 32318 ft 445 kts 200°
2026-04-18 07:05 43.99704 3.13152 31514 ft 441 kts 200°
2026-04-18 07:05 43.96796 3.11888 30750 ft 436 kts 200°
2026-04-18 07:05 43.93911 3.10643 29954 ft 432 kts 200°
2026-04-18 07:06 43.91057 3.09414 29110 ft 427 kts 200°
2026-04-18 07:06 43.88242 3.08201 28484 ft 420 kts 200°
2026-04-18 07:06 43.85481 3.07006 27999 ft 413 kts 200°
2026-04-18 07:06 43.82762 3.05827 27521 ft 406 kts 200°
2026-04-18 07:07 43.80079 3.04664 27054 ft 401 kts 200°
2026-04-18 07:07 43.77433 3.03517 26593 ft 396 kts 200°
2026-04-18 07:07 43.74825 3.02518 26150 ft 394 kts 194°
2026-04-18 07:07 43.72107 3.02008 25694 ft 393 kts 189°
2026-04-18 07:08 43.69406 3.01582 25238 ft 390 kts 189°
2026-04-18 07:08 43.66711 3.01156 24770 ft 388 kts 189°
2026-04-18 07:08 43.64036 3.00733 24302 ft 385 kts 189°
2026-04-18 07:08 43.61382 3.00312 23841 ft 384 kts 189°
2026-04-18 07:09 43.58736 2.99890 23311 ft 382 kts 189°
2026-04-18 07:09 43.56111 2.99469 22834 ft 378 kts 189°
2026-04-18 07:09 43.53497 2.99047 22363 ft 375 kts 189°
2026-04-18 07:09 43.50918 2.98633 21896 ft 372 kts 189°
2026-04-18 07:10 43.48355 2.98226 21434 ft 369 kts 189°
2026-04-18 07:10 43.45808 2.97823 20968 ft 367 kts 189°
2026-04-18 07:10 43.43271 2.97421 20505 ft 366 kts 189°
2026-04-18 07:10 43.40778 2.97025 20056 ft 364 kts 188°
2026-04-18 07:11 43.38279 2.96627 19605 ft 363 kts 188°
2026-04-18 07:11 43.35773 2.96229 19150 ft 362 kts 188°
2026-04-18 07:11 43.33272 2.95832 18702 ft 362 kts 188°
2026-04-18 07:11 43.30843 2.95445 18233 ft 361 kts 188°
2026-04-18 07:12 43.28359 2.95053 17780 ft 359 kts 188°
2026-04-18 07:12 43.25878 2.94665 17341 ft 357 kts 188°
2026-04-18 07:12 43.23412 2.94280 16912 ft 355 kts 188°
2026-04-18 07:12 43.20963 2.93942 16483 ft 354 kts 183°
2026-04-18 07:13 43.19326 2.94002 16199 ft 354 kts 175°
2026-04-18 07:13 43.16140 2.94886 15634 ft 352 kts 166°
2026-04-18 07:13 43.13763 2.95675 15211 ft 351 kts 166°
2026-04-18 07:13 43.11392 2.96456 14789 ft 350 kts 166°
2026-04-18 07:14 43.09033 2.97228 14369 ft 348 kts 167°
2026-04-18 07:14 43.06669 2.98000 13786 ft 351 kts 167°
2026-04-18 07:14 43.05063 2.98524 13465 ft 350 kts 166°
2026-04-18 07:14 43.02712 2.99291 13033 ft 346 kts 166°
2026-04-18 07:15 43.00374 3.00054 12606 ft 343 kts 166°
2026-04-18 07:15 42.98097 3.00799 12184 ft 340 kts 166°
2026-04-18 07:15 42.95806 3.01549 11751 ft 337 kts 166°
2026-04-18 07:15 42.93530 3.02295 11317 ft 334 kts 166°
2026-04-18 07:16 42.91277 3.03034 10870 ft 333 kts 166°
2026-04-18 07:16 42.89035 3.03766 10445 ft 331 kts 165°
2026-04-18 07:16 42.86800 3.04513 10116 ft 325 kts 164°
2026-04-18 07:16 42.84649 3.05294 9994 ft 313 kts 163°
2026-04-18 07:17 42.82583 3.06075 9763 ft 305 kts 163°
2026-04-18 07:17 42.80560 3.06848 9229 ft 301 kts 163°
2026-04-18 07:17 42.78554 3.07613 8564 ft 299 kts 163°
2026-04-18 07:17 42.76550 3.08367 7930 ft 296 kts 164°
2026-04-18 07:18 42.74580 3.09104 7467 ft 287 kts 164°
2026-04-18 07:18 42.72733 3.09793 7300 ft 267 kts 164°
2026-04-18 07:18 42.70968 3.10452 6918 ft 259 kts 165°
2026-04-18 07:18 42.69215 3.10838 6698 ft 258 kts 175°
2026-04-18 07:19 42.67445 3.11047 6276 ft 260 kts 175°
2026-04-18 07:19 42.65651 3.11257 5855 ft 258 kts 176°
2026-04-18 07:19 42.63871 3.11467 5444 ft 255 kts 176°
2026-04-18 07:19 42.62094 3.11556 4952 ft 253 kts 190°
2026-04-18 07:20 42.60539 3.10593 4464 ft 245 kts 226°
2026-04-18 07:20 42.59659 3.08695 3979 ft 237 kts 259°
2026-04-18 07:20 42.59472 3.06538 3802 ft 224 kts 269°
2026-04-18 07:20 42.59339 3.04488 3681 ft 213 kts 268°
2026-04-18 07:21 42.59204 3.02543 3695 ft 198 kts 268°
2026-04-18 07:21 42.59254 3.00765 3598 ft 183 kts 289°
2026-04-18 07:21 42.59855 2.99331 3388 ft 172 kts 314°
2026-04-18 07:21 42.60797 2.98400 3132 ft 167 kts 330°
2026-04-18 07:22 42.61781 2.97584 2901 ft 164 kts 329°
2026-04-18 07:22 42.62738 2.96784 2676 ft 158 kts 329°
2026-04-18 07:22 42.63636 2.96035 2494 ft 144 kts 328°
2026-04-18 07:22 42.64449 2.95356 2303 ft 130 kts 328°
2026-04-18 07:23 42.65200 2.94728 2132 ft 124 kts 328°
2026-04-18 07:23 42.65933 2.94123 1976 ft 122 kts 328°
2026-04-18 07:23 42.66661 2.93530 1823 ft 122 kts 329°
2026-04-18 07:23 42.67385 2.92940 1636 ft 122 kts 328°
2026-04-18 07:24 42.68100 2.92324 1386 ft 121 kts 329°
2026-04-18 07:24 42.68820 2.91733 1239 ft 121 kts 328°
2026-04-18 07:24 42.69541 2.91139 1091 ft 123 kts 328°
2026-04-18 07:24 42.70263 2.90500 1017 ft 124 kts 325°
2026-04-18 07:25 42.70998 2.89879 857 ft 126 kts 327°
2026-04-18 07:25 42.71747 2.89256 656 ft 126 kts 327°
2026-04-18 07:25 42.72487 2.88623 459 ft 126 kts 326°
2026-04-18 07:25 42.73233 2.88004 256 ft 125 kts 326°
2026-04-18 07:26 42.73968 2.87387 143 ft 120 kts 326°
2026-04-18 07:26 42.74592 2.86850 143 ft 81 kts 327°
2026-04-18 07:26 42.74837 2.86638 141 ft 22 kts 329°
2026-04-18 07:26 42.74961 2.86519 141 ft 20 kts 296°
2026-04-18 07:27 42.74943 2.86345 141 ft 20 kts 207°
2026-04-18 07:27 42.74827 2.86402 141 ft 17 kts 149°
2026-04-18 07:27 42.74814 2.86413 141 ft 0 kts 149°